This demonstration page uses our WeatherBlox Daily Observations layout. Learn more.

Left ArrowRight Arrow

Hourly Observations for October 22, 2020

Temp ( °F °C ) Dew Point ( °F °C ) Humidity (%) Winds ( mph kmh ) Pressure ( in mb ) Visibility ( mi km ) Precip ( " mm )
12:15 am 00:15 Cloudy with Fog 44 6.6 43 6.2 97 97 ESE 12 19 29.92 1013 1 1 N/A
12:35 am 00:35 Cloudy with Fog 44 6.6 43 6.2 97 97 E 12 19 29.92 1013 1 1 N/A
12:55 am 00:55 Cloudy with Mist and Fog 44 6.5 43 6.1 97 97 E 10 17 29.90 1013 1 2 N/A
1:15 am 01:15 Cloudy with Mist and Fog 44 6.5 43 6.1 97 97 ESE 12 19 29.89 1012 1 2 N/A
1:35 am 01:35 Cloudy with Mist and Fog 44 6.5 43 6 97 97 ESE 10 17 29.89 1012 2 3 N/A
1:55 am 01:55 Cloudy with Light Rain 44 6.5 43 6 97 97 ESE 10 17 29.88 1012 2 3 N/A
2:15 am 02:15 Cloudy with Mist and Fog 43 6.2 42 5.8 97 97 E 14 22 29.87 1011 2 2 N/A
2:35 am 02:35 Cloudy with Mist and Fog 43 6.2 42 5.8 97 97 E 14 22 29.86 1011 1 2 N/A
2:55 am 02:55 Cloudy with Mist and Fog 43 6.2 42 5.8 97 97 E 13 20 29.85 1011 2 2 N/A
3:15 am 03:15 Cloudy with Mist and Fog 43 6.2 42 5.8 97 97 E 14 22 29.84 1010 1 2 N/A
3:35 am 03:35 Cloudy with Mist and Fog 43 6.1 42 5.7 97 97 E 13 20 29.83 1010 1 2 N/A
3:55 am 03:55 Cloudy with Mist and Fog 43 6.2 42 5.8 97 97 E 12 19 29.83 1010 1 2 N/A
4:15 am 04:15 Cloudy with Mist and Fog 43 6.2 42 5.8 97 97 E 12 19 29.82 1010 1 2 N/A
4:35 am 04:35 Cloudy with Mist and Fog 43 6.2 42 5.8 97 97 E 9 15 29.82 1010 2 2 N/A
4:55 am 04:55 Cloudy with Mist and Fog 43 6.2 42 5.8 97 97 ENE 7 11 29.83 1010 2 2 N/A
5:15 am 05:15 Cloudy with Mist and Fog 44 6.4 43 6 97 97 NE 7 11 29.83 1010 2 3 N/A
5:35 am 05:35 Cloudy with Mist and Fog 44 6.5 43 6.1 97 97 N 6 9 29.84 1011 2 3 N/A
5:55 am 05:55 Cloudy with Mist and Fog 44 6.5 43 6.1 97 97 N 10 17 29.85 1011 3 5 N/A
6:15 am 06:15 Cloudy with Mist and Fog 44 6.5 43 6.1 97 97 NNE 10 17 29.85 1011 3 4 N/A
6:35 am 06:35 Cloudy with Mist and Fog 44 6.5 43 6.1 97 97 NNE 13 20 29.84 1011 3 5 N/A
6:55 am 06:55 Cloudy with Light Rain 44 6.5 43 6.1 97 97 NNE 9 15 29.84 1011 3 5 N/A
7:15 am 07:15 Cloudy with Drizzle 44 6.5 43 6 97 97 NNE 10 17 29.84 1011 3 5 N/A
7:35 am 07:35 Cloudy with Mist and Fog 44 6.5 43 6 97 97 NE 9 15 29.83 1010 4 6 N/A
7:55 am 07:55 Cloudy with Mist and Fog 44 6.5 43 6.1 97 97 NE 10 17 29.82 1010 5 8 N/A
8:15 am 08:15 Cloudy 44 6.5 43 6.1 97 97 NNE 12 19 29.83 1010 7 11 N/A
8:35 am 08:35 Cloudy 44 6.5 43 6.1 97 97 NNE 13 20 29.82 1010 7 11 N/A
8:55 am 08:55 Cloudy 44 6.7 43 6.3 97 97 NNE 12 19 29.84 1011 7 11 N/A
9:15 am 09:15 Cloudy with Mist and Fog 44 6.7 43 6.3 97 97 NNE 15 24 29.84 1011 5 8 N/A
9:35 am 09:35 Cloudy 44 6.6 43 6.2 97 97 NNE 12 19 29.85 1011 10 16 N/A
9:55 am 09:55 Cloudy with Mist and Fog 44 6.5 43 6.1 97 97 NNE 16 26 29.85 1011 5 8 N/A
10:15 am 10:15 Cloudy 43 6.3 42 5.8 97 97 NE 13 20 29.87 1011 10 16 N/A
10:35 am 10:35 Cloudy with Mist and Fog 43 6.2 42 5.7 97 97 NNE 14 22 29.87 1011 4 6 N/A
10:55 am 10:55 Cloudy with Mist and Fog 43 6 42 5.5 97 97 N 13 20 29.89 1012 4 6 N/A
11:15 am 11:15 Cloudy with Mist and Fog 43 6 42 5.5 97 97 N 15 24 29.90 1012 4 6 N/A
11:35 am 11:35 Cloudy with Mist and Fog 43 6 42 5.5 97 97 N 16 26 29.90 1012 5 8 N/A
11:55 am 11:55 Cloudy 42 5.7 41 5.2 97 97 N 16 26 29.91 1013 7 11 N/A
12:15 pm 12:15 Cloudy 43 5.9 42 5.4 97 97 N 16 26 29.92 1013 10 16 N/A
12:35 pm 12:35 Cloudy 42 5.8 42 5.3 97 97 N 16 26 29.92 1013 10 16 N/A
12:55 pm 12:55 Cloudy 42 5.6 41 5 96 96 N 16 26 29.92 1013 10 16 N/A
1:15 pm 13:15 Cloudy 42 5.3 40 4.6 95 95 N 18 30 29.94 1014 10 16 N/A
1:35 pm 13:35 Cloudy 41 5 40 4.3 95 95 N 17 28 29.94 1014 10 16 N/A
1:55 pm 13:55 Cloudy 40 4.6 39 4 96 96 N 16 26 29.94 1014 10 16 N/A
2:15 pm 14:15 Cloudy 40 4.7 39 4 95 95 N 16 26 29.95 1014 10 16 N/A
2:35 pm 14:35 Cloudy 41 4.8 39 3.7 93 93 N 15 24 29.96 1015 10 16 N/A
2:55 pm 14:55 Cloudy 40 4.3 38 3.2 93 93 N 14 22 29.98 1015 10 16 N/A
3:15 pm 15:15 Cloudy 39 4 37 2.8 92 92 N 15 24 30.00 1016 10 16 N/A
3:35 pm 15:35 Cloudy with Mist and Fog 39 3.7 37 2.7 93 93 N 16 26 30.01 1016 5 8 N/A
3:55 pm 15:55 Cloudy with Mist and Fog 38 3.5 36 2.3 92 92 N 17 28 30.03 1017 5 8 N/A
4:15 pm 16:15 Cloudy 38 3.3 36 2.2 93 93 N 16 26 30.03 1017 10 16 N/A
4:30 pm 16:30 Cloudy with Mist and Fog 38 3.1 36 2 93 93 N 15 24 30.05 1017 4 6 N/A
4:55 pm 16:55 Cloudy 38 3.1 36 2.1 93 93 N 18 30 30.06 1018 10 16 N/A
5:15 pm 17:15 Cloudy 37 3 36 2 93 93 N 22 35 30.06 1018 7 11 N/A
5:35 pm 17:35 Cloudy 37 3 35 1.7 91 91 N 23 37 30.07 1018 10 16 N/A
5:55 pm 17:55 Cloudy 37 3 35 1.5 90 90 N 24 39 30.08 1019 10 16 N/A
6:15 pm 18:15 Cloudy 37 2.9 35 1.4 90 90 N 20 31 30.09 1019 10 16 N/A
6:35 pm 18:35 Cloudy 37 2.6 34 1.1 90 90 N 24 39 30.09 1019 10 16 N/A
6:55 pm 18:55 Cloudy 37 2.5 34 1 90 90 NNW 23 37 30.09 1019 10 16 N/A
7:15 pm 19:15 Cloudy 36 2.2 33 0.5 89 89 N 21 33 30.11 1020 10 16 N/A
7:35 pm 19:35 Cloudy 36 2 32 0.2 88 88 N 22 35 30.13 1020 10 16 N/A
7:55 pm 19:55 Cloudy 35 1.8 32 0.1 89 89 N 23 37 30.15 1021 10 16 N/A
8:15 pm 20:15 Cloudy 35 1.7 32 0.1 89 89 NNW 17 28 30.17 1022 10 16 N/A
8:35 pm 20:35 Cloudy 35 1.5 32 undefined 90 90 N 17 28 30.18 1022 10 16 N/A
8:55 pm 20:55 Cloudy 35 1.6 32 -0.1 89 89 N 18 30 30.20 1023 10 16 N/A
9:15 pm 21:15 Cloudy 35 1.5 31 -0.3 88 88 N 20 31 30.20 1023 10 16 N/A
9:35 pm 21:35 Cloudy 35 1.5 32 -0.2 89 89 N 21 33 30.21 1023 10 16 N/A
9:55 pm 21:55 Cloudy 34 1.3 31 -0.3 89 89 N 18 30 30.22 1023 10 16 N/A
10:15 pm 22:15 Cloudy 34 1.3 31 -0.4 89 89 N 23 37 30.23 1024 10 16 N/A
10:35 pm 22:35 Cloudy 34 1.1 31 -0.5 89 89 N 15 24 30.24 1024 10 16 N/A
10:55 pm 22:55 Cloudy 34 1 31 -0.5 90 90 N 18 30 30.26 1025 10 16 N/A
11:15 pm 23:15 Cloudy 33 0.7 31 -0.8 90 90 N 18 30 30.28 1025 10 16 N/A
11:35 pm 23:35 Cloudy 33 0.7 31 -0.6 91 91 N 18 30 30.27 1025 10 16 N/A
11:55 pm 23:55 Cloudy 33 0.8 31 -0.6 90 90 N 15 24 30.28 1025 10 16 N/A

Powered by AerisWeather